Regional Weather Roundup
Issued by NWS

Home | Current Version | Previous Version | Text Only | Print | Product List | Glossary On
Versions: 1 2 3 4 5 6 7 8 9 10 11 12 13 14 15 16 17 18 19 20 21 22 23 24 25 26 27 28 29 30 31 32 33 34 35 36 37 38 39 40 41 42 43 44 45
000
ASUS43 KDMX 251907
RWRIA

WEATHER ROUNDUP FOR IOWA
NATIONAL WEATHER SERVICE DES MOINES IA
100 PM CST THU DEC 25 2014

NOTE: "FAIR" INDICATES FEW OR NO CLOUDS BELOW 12,000 FEET WITH NO
SIGNIFICANT WEATHER AND/OR OBSTRUCTIONS TO VISIBILITY.

* - THESE STATIONS ARE NOT NWS STATIONS...THUS NOT UNDER NWS
QUALITY CONTROL.  THEY ALSO DO NOT REPORT WEATHER SUCH
AS PRECIPITATION OR FOG.

IAZ001>003-012>014-020>022-031>034-043>046-252000-
   NORTHWEST IOWA

CITY           SKY/WX    TMP DP  RH WIND       PRES   REMARKS
CARROLL *      SUNNY     43  34  70 S13       29.66F
CHEROKEE *     MOSUNNY   36  32  87 E3        29.66F
DENISON *      SUNNY     43  34  70 S12G18    29.62F
LE MARS *      SUNNY     37  30  75 SE7       29.64F WCI  32
ORANGE CITY *  SUNNY     37  28  70 S5        29.64F WCI  34
SHELDON *      SUNNY     36  30  80 S6        29.64F WCI  31
SIOUX CITY     PTSUNNY   41  32  70 SE10      29.62F
SPENCER        MOSUNNY   38  28  67 S6        29.67F WCI  33
STORM LAKE *   SUNNY     36  30  80 S8        29.66S WCI  29
$$

IAZ055>058-069>071-079>083-090>094-252000-
   SOUTHWEST IOWA

CITY           SKY/WX    TMP DP  RH WIND       PRES   REMARKS
ATLANTIC *     SUNNY     45  34  65 S15G23    29.65F
AUDUBON *      SUNNY     43  30  61 S12G21    29.66F
CLARINDA *     SUNNY     48  34  57 S15G24    29.68F
COUNCIL BLFS * SUNNY     45  34  65 SE16G24   29.60F
CRESTON *      SUNNY     46  34  61 S20G28    29.69F
HARLAN  *      SUNNY     43  36  75 S18       29.67F
LAMONI         SUNNY     48  32  53 S17G25    29.73F
RED OAK *      SUNNY     46  34  61 S20G25    29.64F
SHENANDOAH *   SUNNY     46  34  61 S18G25    29.63F
$$

IAZ047>049-059>061-072>074-084-252000-
   CENTRAL IOWA

CITY           SKY/WX    TMP DP  RH WIND       PRES   REMARKS
AMES           CLOUDY    43  31  62 S12       29.73F
ANKENY *       SUNNY     45  32  61 S9G16     29.73F
CHARITON *     SUNNY     46  34  61 S21       29.75F
DES MOINES     PTSUNNY   47  32  56 S14G23    29.73F
GRINNELL*      PTSUNNY   45  34  65 S17       29.77F
KNOXVILLE *    SUNNY     46  30  53 S22G28    29.74F
MARSHALLTOWN   MOSUNNY   41  32  70 S12       29.74F
PELLA *        PTSUNNY   48  34  57 S12G20    29.78F
PERRY *          N/A     43  36  75 S16       29.70F
$$

IAZ004>006-015-016-023>025-035-036-252000-
   NORTH CENTRAL IOWA

CITY           SKY/WX    TMP DP  RH WIND       PRES   REMARKS
ALGONA *       SUNNY     36  36 100 S8        29.70S WCI  29
CLARION *      SUNNY     34  32  93 S14       29.71S WCI  24
ESTHERVILLE    MOSUNNY   36  29  75 S7        29.68F WCI  30
FORT DODGE *   CLOUDY    37  28  70 S8        29.70F WCI  31
MASON CITY     CLOUDY    35  30  82 S12       29.73F WCI  27
FOREST CITY *  SUNNY     36  30  80 S7        29.72F WCI  30
IOWA FALLS *     N/A     39  32  75 S13       29.74F WCI  32
$$

IAZ007>011-017>019-026>030-037>042-050>054-066-252000-
   NORTHEAST IOWA

CITY           SKY/WX    TMP DP  RH WIND       PRES   REMARKS
CEDAR RAPIDS   MOSUNNY   43  32  65 S17       29.81F
CHARLES CITY * SUNNY     39  32  75 S14       29.75F WCI  31
CLINTON *      SUNNY     45  30  57 SW15G21   29.90F
DECORAH *      MOSUNNY   37  32  81 S8        29.77S WCI  31
DUBUQUE        MOSUNNY   42  31  64 S20       29.83F
MONTICELLO *   SUNNY     43  34  70 S15       29.83F
OELWEIN *      MOSUNNY   41  34  75 S16       29.78F
WATERLOO       LGT RAIN  42  30  62 S14       29.77F
$$

IAZ064-065-067-068-078-252000-
   EAST CENTRAL IOWA

CITY           SKY/WX    TMP DP  RH WIND       PRES   REMARKS
DAVENPORT      SUNNY     45  31  58 S16G23    29.88F
IOWA CITY      MOSUNNY   44  32  62 S13       29.85F
MT. PLEASANT * SUNNY     45  34  65 S15       29.86F
MUSCATINE *    SUNNY     46  32  57 S13G21    29.87F
QUAD CITIES    SUNNY     46  32  58 S15       29.88F
$$

IAZ062-063-075>077-085>089-095>099-252000-
   SOUTHEAST IOWA

CITY           SKY/WX    TMP DP  RH WIND       PRES   REMARKS
BURLINGTON     SUNNY     47  33  58 SW16      29.89S
FAIRFIELD *    SUNNY     46  32  57 S13G21    29.83F
FORT MADISON * SUNNY     46  36  66 S12G17    29.89F
KEOKUK *       SUNNY     46  34  61 S12       29.88S
OSKALOOSA *      N/A     46  32  57 S18       29.80F
CENTERVILLE *  SUNNY     48  32  53 S17G26    29.80F
OTTUMWA        MOSUNNY   47  31  53 S17       29.80F
WASHINGTON *   SUNNY     46  36  66 S16G22    29.83F
$$

ABBREVIATIONS USED IN REMARKS
   TC - TEMPERATURES IN CELSIUS
  WCI - WIND CHILL INDEX
   HX - HEAT INDEX
  VSB - VISIBILITY
$$



USA.gov is the U.S. government's official web portal to all federal, state and local government web resources and services.